RH
8 8 8 7 7 6 5 6 7 24 48 73 75 70 72 74 78 89 82 78 80 84 91 96 87 86 96 90 95 92 79 87 94 100 92 44 20 7 3 36 54 64 46 46 12 9 19 24 20
8 8 8 8 7 7 7 6 4 4 18 36 51 56 68 67 64 65 67 71 79 89 86 81 75 82 76 84 96 95 93 95 91 96 95 92 37 20 3 16 42 56 57 40 14 11 10 26 22
8 8 7 6 7 7 9 6 6 4 4 4 6 9 20 30 43 40 39 49 59 69 73 66 87 95 88 81 92 96 95 94 92 95 91 96 79 28 16 5 23 44 56 54 36 8 7 11 24
8 8 7 8 9 8 6 6 5 8 7 5 4 4 4 4 4 4 5 6 9 15 10 15 29 92 86 97 94 88 96 98 92 93 93 96 84 45 32 9 9 25 44 54 52 21 3 5 13
8 7 7 8 8 7 7 8 5 4 4 7 7 8 7 6 6 5 5 4 4 4 5 4 6 25 82 23 72 96 97 95 96 96 90 92 95 83 46 42 10 7 20 39 50 55 16 4 4
6 5 7 7 6 6 6 9 9 9 9 7 6 4 5 5 5 4 5 5 6 7 9 11 11 8 18 33 13 33 87 89 96 96 94 95 95 97 95 44 42 16 7 17 34 44 46 13 4
4 4 5 4 5 4 4 6 7 6 8 9 8 8 8 8 8 6 6 6 5 4 3 3 3 4 7 13 13 8 16 44 21 77 97 95 90 96 94 88 43 51 39 17 10 24 35 38 15
5 4 5 4 4 3 3 3 3 4 6 5 5 6 7 8 8 9 9 9 9 9 9 9 8 7 6 3 3 3 7 12 12 12 27 65 94 98 95 93 45 50 57 54 24 8 11 24 23
4 4 6 6 4 3 3 3 3 4 4 5 5 5 5 5 5 5 4 4 5 6 6 6 7 8 10 9 8 7 5 4 3 8 12 18 31 46 93 94 95 69 63 57 58 38 17 7 8
4 4 4 5 4 3 2 3 3 3 3 3 3 4 4 5 4 4 4 3 4 3 4 4 4 5 5 6 7 7 9 10 8 6 4 3 8 12 21 39 86 95 89 83 64 64 54 29 11
6 5 4 3 3 4 3 3 2 2 3 2 2 2 2 3 3 3 4 4 4 4 5 4 4 4 4 4 4 5 5 5 6 8 10 8 7 5 3 7 19 38 85 94 94 86 70 67 59
5 5 5 4 3 4 3 3 2 2 2 2 2 2 3 3 4 4 5 5 6 7 8 7 7 7 6 5 5 4 5 5 5 5 5 6 8 8 9 8 5 4 15 28 40 50 76 83 76
6 5 4 3 2 3 3 3 3 3 3 3 3 3 4 4 6 7 7 8 10 11 12 12 13 13 12 11 10 9 8 7 6 6 6 6 5 6 6 6 8 9 8 4 9 18 32 48 77
6 5 5 4 3 3 3 3 3 4 4 4 5 6 8 9 10 11 12 12 14 15 18 19 19 18 19 18 16 14 14 12 11 11 10 9 8 7 6 5 5 4 5 7 10 7 6 34 38
6 6 6 6 6 5 5 5 7 6 8 11 13 14 14 16 16 17 18 20 22 23 22 21 21 22 22 22 22 21 19 17 16 16 15 14 13 13 11 10 7 6 5 4 4 5 9 8 8
22 20 19 18 17 16 16 17 18 18 18 17 18 20 21 23 25 25 26 27 26 26 26 26 26 26 26 26 25 25 25 24 23 22 21 20 19 18 16 15 13 12 10 8 6 5 4 4 9
31 29 28 27 27 24 23 24 25 25 25 26 26 30 33 34 34 35 33 32 31 30 30 29 28 27 26 25 24 24 24 24 24 24 23 22 21 21 20 20 19 18 16 14 11 10 8 6 4
41 39 37 37 38 37 35 36 36 37 35 35 38 40 41 43 42 41 39 36 35 34 33 32 30 29 28 27 26 26 25 24 24 23 22 23 23 22 21 19 18 18 17 17 16 15 12 10 8
51 50 50 50 49 50 49 44 49 46 40 46 43 44 46 48 48 47 45 41 39 36 34 33 32 31 30 29 29 28 27 26 25 24 23 22 21 21 21 20 19 18 16 16 16 16 15 14 13
63 62 64 62 59 53 50 45 54 48 44 46 46 48 50 51 52 53 52 50 50 49 44 39 35 33 31 29 27 25 24 23 23 22 22 21 19 19 18 18 18 17 16 16 15 15 15 15 14
78 80 82 78 74 68 61 55 63 62 60 61 59 58 58 65 70 68 63 53 46 41 38 36 33 30 28 26 24 23 21 20 19 19 19 18 18 17 16 14 13 12 12 12 12 13 13 14 14
95 95 93 93 93 88 82 61 55 62 70 79 80 76 74 70 63 57 50 45 41 38 36 33 31 29 27 25 23 22 21 20 19 18 16 15 14 13 12 11 10 9 9 8 9 9 10 10 11
95 100 97 93 91 85 70 92 41 54 62 72 72 71 68 64 58 53 50 46 43 40 36 33 30 28 26 24 24 22 20 18 16 14 12 11 10 9 9 9 8 8 8 10 10 8 9 9 10
98 97 98 96 97 90 83 100 51 58 60 64 66 65 63 59 54 48 43 39 35 33 32 31 29 28 26 24 21 19 17 16 15 14 13 12 11 10 9 9 8 8 8 8 8 9 9 9 9
99 100 99 95 90 84 83 81 54 52 57 57 60 60 57 54 51 48 44 39 36 34 32 31 29 28 26 25 24 23 22 20 18 17 16 14 13 12 11 10 9 8 7 6 6 6 6 6 7
100 100 100 97 90 85 84 61 52 54 56 57 56 55 54 53 50 47 43 42 41 39 36 34 32 31 29 27 24 22 20 19 18 17 15 14 13 13 12 12 10 9 8 8 7 7 6 6 6
99 100 100 100 96 94 81 72 72 64 62 60 60 61 62 63 58 53 48 45 41 41 41 38 34 30 28 28 27 27 26 24 24 23 22 21 20 18 17 15 14 12 11 10 10 8 7 6 6
100 99 99 100 99 95 71 69 72 68 66 62 59 65 65 58 52 49 48 49 50 48 43 38 36 36 34 31 30 29 27 26 25 24 21 18 15 14 11 10 9 8 6 6 6 5 5 5 5
99 92 97 100 99 99 94 72 71 73 75 78 78 75 71 67 65 62 64 60 55 51 51 50 45 41 41 42 38 32 26 20 14 11 8 6 5 4 4 4 3 3 4 4 3 3 3 3 2
100 100 100 100 99 100 100 76 75 80 93 87 80 75 69 68 70 67 65 66 65 63 56 53 53 50 42 29 19 12 10 8 6 5 5 6 6 6 7 7 7 7 7 6 6 6 5 4 4
Wind_Speed
9 8 9 11 8 7 4 3 6 7 6 5 6 6 4 5 5 6 8 9 12 12 12 13 17 17 17 17 24 27 24 21 20 17 16 14 11 12 15 19 20 20 21 23 23 22 20 19 18
11 10 11 12 8 8 4 4 8 5 4 6 8 8 6 4 4 4 5 6 6 8 12 12 14 11 9 9 7 21 29 23 21 20 21 22 16 13 15 20 21 21 23 22 23 24 23 21 20
11 11 13 12 9 6 7 7 7 5 4 4 7 8 9 9 9 9 8 6 4 4 5 6 4 3 3 5 10 25 23 22 22 18 17 19 19 15 15 18 22 23 23 24 23 24 24 24 23
12 12 12 10 9 8 11 7 4 7 8 7 8 9 9 8 8 6 4 5 4 4 3 3 5 5 9 3 5 10 14 18 21 22 22 22 21 16 16 16 19 24 25 25 26 25 26 26 26
13 14 12 11 10 10 13 6 3 4 4 9 11 10 10 11 10 9 8 7 7 7 5 3 2 5 11 8 10 5 3 15 21 23 24 24 22 20 16 15 17 20 25 26 27 28 27 27 27
14 14 12 11 12 11 12 8 8 10 10 8 8 7 8 8 8 8 7 7 7 7 6 4 3 3 1 8 4 8 10 5 5 23 21 20 20 22 25 19 18 18 22 27 29 30 29 29 29
14 14 12 11 10 11 9 9 9 10 8 8 11 10 11 11 10 9 8 8 8 7 8 6 5 6 5 4 6 7 6 9 10 8 8 11 19 18 16 26 18 17 20 23 28 31 33 32 30
17 16 13 14 13 12 11 10 9 9 9 9 11 12 12 12 13 14 13 12 12 12 11 10 10 9 9 8 7 9 10 11 10 11 12 18 13 17 19 20 22 22 21 22 26 28 33 35 35
20 18 17 16 18 17 15 13 11 11 12 12 13 14 14 14 15 15 15 15 15 15 14 13 13 14 14 13 13 13 13 14 13 14 14 14 15 18 15 16 25 31 27 26 26 28 29 33 37
22 21 22 20 21 21 19 17 16 15 15 15 15 15 15 17 18 18 17 17 17 17 16 16 16 17 16 16 17 17 17 18 18 18 17 17 18 18 18 17 21 22 32 31 29 30 31 32 33
24 24 24 23 23 23 23 21 21 20 19 20 19 18 19 18 20 20 21 21 21 21 21 21 21 20 20 21 20 20 21 21 22 22 22 21 23 23 22 22 21 21 26 22 26 38 34 34 33
25 26 26 26 26 25 24 24 24 23 23 23 24 23 23 23 23 24 24 25 26 25 25 25 25 26 27 26 27 27 27 26 26 26 26 27 26 27 27 27 27 26 26 27 28 29 31 44 38
26 26 27 28 27 25 25 26 24 23 24 25 26 27 27 27 27 28 28 29 29 29 29 30 30 30 30 31 32 33 33 33 33 32 32 31 32 32 31 31 32 32 31 31 30 31 29 32 37
26 27 27 27 27 27 27 28 27 27 27 27 28 30 31 31 32 32 33 33 34 34 34 35 35 36 36 35 35 36 37 38 39 38 38 38 38 38 38 38 38 37 37 36 36 35 34 34 35
24 25 26 26 26 27 28 28 26 29 30 31 31 32 34 35 34 35 37 38 39 39 39 40 40 41 41 42 41 41 41 42 43 44 44 44 44 44 44 44 44 45 44 43 41 40 39 39 39
24 26 26 26 28 30 31 30 32 34 35 36 37 37 37 38 39 40 42 43 44 45 44 44 45 46 47 47 47 48 47 47 47 47 48 48 48 49 49 50 49 49 50 50 50 48 46 44 44
31 33 34 35 35 37 37 37 38 40 40 41 41 41 41 42 43 44 46 48 48 49 49 49 50 51 52 53 53 53 54 54 54 53 52 52 53 54 54 55 55 55 55 55 55 55 54 54 50
37 38 39 39 39 39 40 40 42 43 44 44 44 45 45 45 45 47 48 50 51 51 52 54 55 56 56 57 57 57 58 58 58 59 60 60 58 58 58 59 60 60 61 61 61 60 61 60 59
42 43 43 43 44 44 44 45 45 47 48 48 49 49 48 47 47 48 50 52 53 55 56 57 58 60 61 61 61 61 62 62 63 63 63 64 65 65 64 63 63 63 65 66 66 66 66 66 65
46 46 47 48 49 51 51 49 51 53 53 53 53 53 52 50 50 51 53 55 57 58 60 61 62 63 64 65 67 67 68 68 68 68 68 69 69 70 70 70 71 71 70 70 72 72 71 72 72
51 51 51 53 54 56 57 54 55 55 56 57 56 54 54 55 56 57 58 59 59 61 62 63 64 65 66 68 69 70 71 72 73 73 73 73 73 73 73 75 76 76 76 76 76 76 78 78 78
55 57 59 60 59 58 56 56 52 54 56 56 56 55 55 56 58 60 61 62 63 64 65 67 68 70 71 73 75 76 78 79 79 80 80 81 81 81 81 80 80 81 82 82 82 82 82 83 83
47 50 53 55 56 57 56 63 53 57 57 56 56 56 57 59 61 63 65 67 69 70 71 73 74 74 75 77 78 79 80 82 83 84 86 88 89 89 90 90 90 89 88 88 88 90 90 89 88
49 53 56 58 60 62 59 60 54 58 59 60 59 60 61 62 64 66 68 70 71 72 74 75 77 78 79 81 82 83 84 86 88 90 92 94 96 97 97 98 100 100 98 97 96 95 95 96 96
52 55 59 60 62 61 61 63 59 60 60 61 62 63 65 68 70 71 71 72 73 74 75 77 79 81 83 84 85 87 88 89 91 94 96 97 99 101 103 105 107 109 110 111 109 107 106 105 103
54 56 57 60 61 62 61 64 61 62 63 64 66 68 69 70 71 72 74 76 77 80 82 83 84 86 87 89 91 93 95 97 99 101 103 105 107 108 109 111 113 114 116 117 117 117 117 115 114
53 54 55 60 62 64 65 65 64 63 65 68 70 72 72 74 78 80 81 83 84 84 86 89 91 93 94 95 96 98 100 102 104 106 108 110 112 114 116 116 119 121 122 124 125 125 126 126 125
54 57 59 62 65 68 68 68 68 67 69 71 71 72 74 78 81 83 85 87 89 92 95 97 98 99 100 102 104 106 108 109 110 112 114 115 117 118 118 120 122 123 124 125 127 129 131 134 135
59 60 63 66 69 71 70 67 69 71 72 73 76 80 82 84 86 87 89 93 96 99 102 103 104 105 106 108 109 109 110 110 108 108 108 109 111 109 111 112 113 113 112 111 113 114 117 121 125
64 66 66 68 70 69 72 68 73 74 76 78 80 83 88 90 91 93 96 98 100 101 102 104 106 107 108 107 107 107 106 106 104 102 100 98 96 95 93 92 90 89 88 88 90 90 93 97 99
Wind_Direction
249 255 257 257 258 271 278 241 245 195 184 189 262 290 315 320 323 270 281 299 274 272 288 298 300 285 287 298 262 236 226 219 224 225 218 197 218 217 208 206 209 211 209 206 200 201 197 197 195
259 253 257 259 260 273 286 218 245 265 196 221 237 265 271 264 260 261 274 256 258 258 263 294 309 288 288 282 225 234 230 222 233 233 227 213 202 214 214 208 212 214 215 215 210 208 203 205 203
262 260 260 259 267 262 244 226 225 235 253 257 266 270 268 268 264 261 260 262 278 275 267 288 347 352 353 242 236 264 257 229 231 236 245 245 213 210 211 212 213 217 222 221 222 216 212 210 209
259 257 254 258 248 240 246 250 248 210 209 225 246 258 271 271 267 270 270 279 279 290 337 11 354 304 64 127 289 257 250 244 252 253 256 253 218 227 210 216 218 217 219 222 227 227 220 216 216
256 255 253 253 245 235 250 256 269 263 249 230 242 247 256 265 277 283 288 291 301 307 323 346 15 348 349 347 357 60 175 251 244 260 260 269 264 235 244 221 222 224 224 225 227 229 227 222 220
243 249 249 240 241 237 244 244 240 246 248 264 266 270 264 271 273 280 289 294 293 291 293 291 301 289 267 321 311 330 341 310 259 242 260 267 265 260 243 230 228 228 228 229 231 231 231 229 225
248 236 221 224 228 233 237 227 221 243 252 255 268 271 269 277 287 286 284 286 289 293 302 319 320 315 302 261 281 292 289 299 297 296 280 294 270 261 267 222 243 232 233 230 231 236 236 236 234
245 229 221 226 230 227 233 229 228 238 252 257 266 272 269 271 272 277 279 283 286 290 290 297 302 298 300 302 303 290 287 281 280 283 298 311 306 255 250 234 233 241 235 239 236 236 238 241 240
243 232 230 228 235 234 233 233 230 238 247 246 253 263 273 276 276 280 284 287 290 292 296 298 297 294 294 294 290 287 288 287 289 282 279 277 287 289 269 274 245 243 243 235 241 242 242 244 243
247 238 235 232 232 236 238 238 241 244 248 251 254 260 262 268 272 274 277 282 286 290 292 293 292 291 291 291 289 288 282 282 283 283 283 280 276 271 270 276 276 257 245 249 246 244 243 244 247
247 245 242 238 238 237 240 243 245 247 249 252 255 257 263 268 274 279 282 285 286 288 289 289 289 287 287 287 284 281 282 283 280 279 278 275 277 278 276 274 267 270 278 266 260 253 252 247 246
250 249 246 242 239 239 241 244 249 253 257 257 259 261 262 265 269 273 277 279 282 284 285 286 288 289 289 288 285 285 286 285 282 282 281 279 274 273 273 274 272 271 263 261 267 273 271 254 255
251 248 248 248 246 245 244 247 247 250 255 259 264 267 270 271 272 272 274 276 277 280 283 284 284 283 283 283 284 285 285 284 283 282 282 281 281 279 277 274 272 270 268 267 263 261 262 268 264
252 253 251 253 254 256 254 252 255 257 257 258 261 266 269 272 274 275 276 275 276 279 280 282 282 284 284 282 280 279 280 280 280 280 281 280 279 279 278 278 277 276 273 268 265 264 262 258 264
258 257 258 260 259 259 261 261 262 260 262 265 267 269 272 273 273 274 276 278 279 278 278 279 280 282 281 282 283 280 277 277 278 278 278 279 279 278 277 276 275 275 276 275 272 268 264 260 260
266 264 263 262 263 264 265 266 266 266 267 268 269 270 271 272 273 275 276 276 277 278 279 278 278 278 279 280 279 280 280 277 275 274 274 275 275 276 277 277 276 275 274 274 274 274 271 265 261
267 267 265 264 263 263 264 265 266 267 268 269 270 271 272 272 273 273 273 273 275 275 276 276 277 277 277 276 276 276 276 277 277 276 274 273 273 273 272 273 274 275 274 273 273 272 272 272 268
265 265 267 266 265 263 262 263 264 265 267 269 271 272 272 271 271 271 271 271 272 272 273 274 275 275 275 275 275 275 274 274 274 274 275 275 273 272 271 271 271 272 271 272 271 271 271 270 270
268 268 267 267 268 267 266 266 267 268 269 269 269 270 269 269 269 270 270 270 271 272 273 274 274 275 276 276 276 276 275 275 274 274 273 273 273 274 273 272 271 271 270 270 270 269 268 269 268
268 267 267 266 266 266 266 267 266 268 269 269 270 270 269 270 270 271 271 271 272 273 274 274 274 274 274 274 275 275 276 276 276 275 275 274 273 273 272 272 272 271 270 269 269 269 268 266 265
271 271 269 268 267 268 270 270 268 271 274 274 273 271 271 272 273 273 273 273 274 274 274 274 274 274 274 274 274 274 274 275 275 275 274 273 272 272 272 272 273 272 271 270 269 267 268 266 266
274 271 270 270 271 273 272 274 273 273 272 271 271 270 271 270 271 273 274 275 275 274 274 274 274 273 273 273 273 273 273 274 274 275 275 274 274 273 272 271 270 269 269 268 267 266 265 264 264
278 275 272 272 273 274 274 274 275 275 274 273 272 270 270 272 273 274 274 274 274 275 275 275 274 273 272 272 273 273 273 274 274 275 276 276 276 276 274 273 271 269 268 267 267 267 265 262 261
277 276 276 275 274 273 273 273 273 273 274 275 275 275 275 275 275 275 276 276 276 275 274 274 273 273 273 273 274 275 275 275 275 275 275 275 276 276 276 275 273 271 269 268 267 266 266 265 263
276 276 276 276 275 277 275 274 275 274 275 275 276 276 276 276 276 276 277 277 277 277 277 277 276 276 276 277 277 277 277 277 276 276 275 275 275 275 274 274 274 273 272 271 269 268 268 266 264
274 273 274 275 275 274 273 275 277 278 278 279 279 280 279 278 279 279 279 280 279 279 280 280 279 279 278 278 277 277 278 278 277 277 276 276 275 276 276 275 274 274 273 272 271 271 270 268 265
275 274 275 276 275 275 276 277 278 278 278 279 279 280 281 280 281 282 282 281 281 281 282 283 282 282 281 281 280 280 280 280 280 280 279 278 278 277 276 275 274 273 272 272 271 270 269 269 268
280 278 279 281 282 282 281 282 282 281 281 282 283 285 285 284 284 284 284 283 283 285 285 285 284 284 283 282 283 283 283 282 282 282 281 281 280 279 278 278 277 276 275 273 272 271 270 269 268
277 280 281 280 281 283 284 281 283 285 286 286 286 286 286 286 285 285 285 285 285 285 285 286 285 284 285 285 285 284 284 283 283 283 282 282 281 280 279 278 277 276 275 274 273 271 270 269 267
279 282 283 281 283 282 285 287 287 289 289 288 287 286 285 286 286 286 285 286 286 286 286 285 284 285 285 285 284 284 284 284 283 283 282 281 281 281 280 279 278 277 276 274 273 272 271 269 268